Showing default

NULINK-2, 68994

Orbit data source: Space-Track

NULINK-2, 68994 is a payload satellite owned by NuSpace (SG) in SSO that was launched on Sun, 03 May 2026 UTC via an FALCON 9 launch vehicle from the Air Force Western Test Range (AFWTR). Payload-class satellites include a variety of spacecraft equipped with specific instruments for various scientific and technological missions. These include communications satellites like Starlink; space stations such as the ISS; scientific satellites like the Hubble; Earth observation satellites from companies like Planet Labs, Umbra, and HawkEye 360; GPS; miniature CubeSats for education and research; and military/defense satellites.

Loading next visibility...
Identifier
68994, 2026-100Q
Orbit
SSO
Country
Flag of SGSG / SING
Related business
Manufacturer
NuSpace
Mission
Operational spacecraft
Bus & Motor
CUBESAT 3U, Unknown motor
Mass
3 kg wet, 3 kg dry
Launch date (UTC)
2026-05-03 (2 months ago)
Launch vehicle
FALCON 9
Launch site
Air Force Western Test Range (AFWTR)
Object type
Payload
Rocket body
Debris
Shape & HBR
Unknown shape, 14.5 m
Radar Cross Section
Medium (>0.1 m² and <1 m²)

Expand to show TLE details & history
Last TLE update: 1 day ago

TLE from 1 day ago
0 NULINK-2
1 68994U 26100Q   26175.15913688  .00000910  00000-0  93914-4 0  9997
2 68994  97.7328  72.5289 0000994  44.5267 315.6032 14.92574987  7741
Epoch: 2026-06-24T03:49Z
TLE epoch observation values (Epoch: 2026-06-24T03:49:09.426Z)
Latitude
-0.00002°
Longitude
102.91927°
Altitude
592.459 km
Speed
7.564 km/s
True Right ascension
04h 50m 06s
True Declination
0° 00' 00"
Sunlit
Object was in daylight at epoch
Visualization orbit readout
Latitude
Unknown
Longitude
Unknown
Altitude
Unknown
Speed
Unknown
Apparent Right ascension
Unknown
Apparent Declination
Unknown
Sunlit
N/A
Visualization observer readout
Local Sidereal Time
19:49:41
Azimuth
Unknown
Elevation
Unknown
Doppler factor
Unknown
Orbital elements
Apogee altitude
587.619 km
Perigee altitude
586.234 km
Semi-major axis
6,965.064 km
Eccentricity
0.0001
Inclination
97.7328°
RAAN
72.5289°
Arg. of periapsis
44.5267°
True anomaly
315.59523°
Mean anomaly
315.6032°
Eccentric anomaly
315.59922°
Mean motion
3.73384 °/min
Orbital period
96.42 mins
BSTAR
0.000093914
Loading maneuver chart data...
Computing Atmospheric mass density...
Loading historical data...
Loading historical data...
Loading historical data...
Loading historical data...
Loading historical data...
Loading historical data...
Loading historical data...

Documentation

Showing up to 5 results
|